Location: Casco Volunteer Fire Department
(44.5576°N, 87.6146°W)
Time: 03:59:33
(UTC+00:00)

BlueWalker 3 - Pass Details

Date: 22 March 2026
Orbit: 449 x 457 km, 53.2° (Epoch: 15 April)

Event Time Altitude Azimuth Distance (km) Brightness Sun altitude
Rises 02:20:07 0° 232° (SW) 2,456 5.8 -24.1°
Reaches altitude 10° 02:22:14 10° 232° (SW) 1,588 4.7 -24.4°
Enters shadow 02:23:26 20° 231° (SW) 1,113 3.9 -24.6°
